Overview Statistics Trail Chart Weather Telemetry Raw packets
 

This is the latest recevied weather packets stored in our database for station/object WX5KDM. If no packets are shown the sender has not sent any weather packets the latest 10 day(s).

<< 78 79 80 81 82 83 84 >>
Time Temp. Humidity Pressure Rain* Wind** Luminosity Snow
1788052991 25° C 79% 1017.5 hPa 0 mm - - -
1788052686 25.56° C 76% 1017.6 hPa 0 mm - - -
1788052381 25.56° C 76% 1017.5 hPa 0 mm - - -
1788052076 25.56° C 73% 1017.4 hPa 0 mm - - -
1788051771 26.11° C 72% 1017.1 hPa 0 mm - - -
1788051471 26.11° C 71% 1017.3 hPa 0 mm - - -
1788051169 26.67° C 69% 1017.5 hPa 0 mm - - -
1788050863 26.67° C 68% 1017.2 hPa 0 mm - - -
1788050559 26.67° C 67% 1017.3 hPa 0 mm - - -
1788050253 27.22° C 66% 1017.5 hPa 0 mm - - -
1788049948 27.22° C 67% 1017.3 hPa 0 mm - - -
1788049644 27.78° C 70% 1017.3 hPa 0 mm - - -
1788049341 27.78° C 70% 1017.2 hPa 0 mm - - -
1788049035 28.33° C 62% 1017.2 hPa 0 mm - - -
1788048731 28.33° C 61% 1017.3 hPa 0 mm - - -
1788048429 28.89° C 61% 1017.2 hPa 0 mm - - -
1788048128 29.44° C 59% 1017.3 hPa 0 mm - - -
1788047826 30.56° C 58% 1017.2 hPa 0 mm - - -
1788047521 31.11° C 55% 1017.1 hPa 0 mm - - -
1788047216 31.67° C 51% 1017.3 hPa 0 mm - - -
1788046916 33.33° C 48% 1017.1 hPa 0 mm - - -
1788046614 33.89° C 47% 1017 hPa 0 mm - - -
1788046310 34.44° C 44% 1017.2 hPa 0 mm - - -
1788046007 34.44° C 43% 1017 hPa 0 mm - - -
1788045702 34.44° C 43% 1017 hPa 0 mm - - -

* Rain latest hour (hover to see other rain measurements)
** Current wind speed in m/s (hover to see current wind gust speed)